Preview of NWS' New Version of Forecast
This preview is not operational and should not be used for support decisions.

Regional Weather Roundup (RWR)

Issued by National Weather Service (NWS)

                            
000
ASUS43 KDMX 260506
RWRIA 

WEATHER ROUNDUP FOR IOWA
NATIONAL WEATHER SERVICE DES MOINES IA
1200 AM CDT FRI APR 26 2019

NOTE: "FAIR" INDICATES FEW OR NO CLOUDS BELOW 12,000 FEET WITH NO
SIGNIFICANT WEATHER AND/OR OBSTRUCTIONS TO VISIBILITY.

* - THESE STATIONS ARE NOT NWS STATIONS...THUS NOT UNDER NWS
QUALITY CONTROL.  THEY ALSO DO NOT REPORT WEATHER SUCH 
AS PRECIPITATION OR FOG.  

IAZ001>003-012>014-020>022-031>034-043>046-260600-
   NORTHWEST IOWA
  
CITY           SKY/WX    TMP DP  RH WIND       PRES   REMARKS
CARROLL *      PTCLDY    54  37  54 NW16      30.01R                  
CHEROKEE *     CLEAR     50  36  57 N9        30.05R                  
DENISON *      CLEAR     50  37  62 NW7       30.05S                  
LE MARS *        N/A    N/A N/A N/A MISG        N/A                   
SHELDON *        N/A     46  36  66 N12       30.05R                  
SIOUX CITY     CLEAR     50  40  68 NW9       30.07R                  
SPENCER        CLEAR     51  31  46 NW14      30.04R                  
STORM LAKE *   CLEAR     50  34  53 N15       30.01R                  
$$
 
IAZ055>058-069>071-079>083-090>094-260600-
   SOUTHWEST IOWA
  
CITY           SKY/WX    TMP DP  RH WIND       PRES   REMARKS
ATLANTIC *     PTCLDY    55  37  50 NW14      30.02R                  
AUDUBON *      CLEAR     54  37  54 CALM      30.03R                  
CLARINDA *     CLEAR     57  36  44 NW13      30.03S                  
COUNCIL BLFS * CLEAR     55  37  50 NW14      30.04S                  
CRESTON *      PTCLDY    52  36  54 NW12      29.99S                  
HARLAN  *      PTCLDY    52  37  58 NW16      30.03S                  
LAMONI         MOCLDY    48  42  80 W10       29.97R                  
RED OAK *      CLEAR     57  37  47 NW12      30.02S                  
SHENANDOAH *   CLEAR     59  36  41 NW14      30.02R                  
$$
 
IAZ047>049-059>061-072>074-084-260600-
   CENTRAL IOWA
  
CITY           SKY/WX    TMP DP  RH WIND       PRES   REMARKS
AMES           PTCLDY    55  37  50 NW13      29.96R                  
ANKENY *       CLEAR     55  36  47 NW13      29.97R                  
BOONE *        CLEAR     54  37  54 NW9       29.96S                  
CHARITON *     CLEAR     48  45  87 W10       29.94S                  
DES MOINES     PTCLDY    54  35  48 NW12      29.96R                  
GRINNELL*      CLEAR     48  39  71 NW12      29.92R                  
KNOXVILLE *    CLEAR     48  48 100 W10       29.93R                  
MARSHALLTOWN   CLEAR     51  39  63 NW15      29.91R                  
NEWTON *       PTCLDY    54  39  58 NW14      29.93R                  
PELLA *        CLEAR     51  39  64 NW8       29.93S                  
PERRY *        FAIR      56  35  45 NW14      29.98R                  
$$
 
IAZ004>006-015-016-023>025-035-036-260600-
   NORTH CENTRAL IOWA
  
CITY           SKY/WX    TMP DP  RH WIND       PRES   REMARKS
ALGONA *       CLEAR     52  36  54 NW20G26   29.99R                  
CLARION *      PTCLDY    48  39  71 NW14      29.97R                  
ESTHERVILLE    CLEAR     48  30  49 N16       30.02R                  
FORT DODGE *   CLEAR     50  38  63 VRB3      29.99R                  
MASON CITY     CLEAR     51  37  58 NW18      29.95R                  
FOREST CITY *  FAIR      52  34  50 NW16G22   29.96S                  
IOWA FALLS *   FAIR      53  39  58 NW15      29.94S                  
$$

IAZ007>011-017>019-026>030-037>042-050>054-066-260600-
   NORTHEAST IOWA
  
CITY           SKY/WX    TMP DP  RH WIND       PRES   REMARKS
CEDAR RAPIDS   FAIR      43  43 100 W8        29.85S                  
CHARLES CITY * FAIR      54  36  50 NW17      29.90S                  
CLINTON *      FAIR      46  45  96 NW9       29.84F                  
DECORAH *      FAIR      54  36  50 NW10G18   29.84S                  
DUBUQUE        FAIR      45  43  93 SW5       29.83F                  
MONTICELLO *   FOG       43  43 100 CALM      29.84S VSB 1/2          
OELWEIN *      FAIR      46  43  87 NW13      29.87S                  
WATERLOO       FAIR      55  37  50 NW17      29.88R                  
$$
 
IAZ064-065-067-068-078-260600-
   EAST CENTRAL IOWA
  
CITY           SKY/WX    TMP DP  RH WIND       PRES   REMARKS
DAVENPORT      FAIR      47  44  90 NW10      29.86F                  
IOWA CITY      FAIR      45  43  93 W5        29.87F                  
MT. PLEASANT * CLEAR     48  48 100 W7        29.88F                  
MUSCATINE *    FAIR      48  46  93 CALM      29.86F                  
QUAD CITIES    FAIR      51  47  86 NW8       29.84S                  
$$
 
IAZ062-063-075>077-085>089-095>099-260600-
   SOUTHEAST IOWA
  
CITY           SKY/WX    TMP DP  RH WIND       PRES   REMARKS
BURLINGTON     CLEAR     49  45  86 NW8       29.86F                  
FAIRFIELD *    CLEAR     46  45  93 W9        29.88S                  
FORT MADISON * CLEAR     48  46  93 W5        29.89R                  
KEOKUK *       CLEAR     48  46  93 W8        29.88S                  
OSKALOOSA *    FAIR      45  42  87 NW8       29.90S                  
CENTERVILLE *  FAIR      48  46  93 W13       29.94S                  
OTTUMWA        CLEAR     47  44  90 W10       29.90S                  
WASHINGTON *   CLEAR     46  46 100 W9        29.88F                  
$$

ABBREVIATIONS USED IN REMARKS
   TC - TEMPERATURES IN CELSIUS
  WCI - WIND CHILL INDEX
   HX - HEAT INDEX
  VSB - VISIBILITY  
$$